Tracking 25378 objects as of 22-Jan-2022
HD Live streaming from Space Station
objects crossing your sky now

STARLINK-2689

Track STARLINK-2689 now!
10-day predictions
STARLINK-2689 is classified as:


NORAD ID: 48463
Int'l Code: 2021-040AM
Perigee: 553.5 km
Apogee: 555.3 km
Inclination: 53.1 °
Period: 95.6 minutes
Semi major axis: 6925 km
RCS: Unknown
Launch date: May 9, 2021
Source: United States (US)
Launch site: AIR FORCE EASTERN TEST RANGE (AFETR)
aabbcc
Your satellite tracking list
Your tracking list is empty




NASA's NSSDC Master Catalog

Two Line Element Set (TLE):
1 48463U 21040AM  22021.52592390 -.00003278  00000-0 -20133-3 0  9998
2 48463  53.0552 122.0393 0001347  85.1532 274.9610 15.06387197 39183
Source of the keplerian elements: AFSPC